Weather History for Atlanta Fulton, GA

Change the Weather History Date:

Monday, June 17, 2013

  Actual Average Record
Temperature  
Mean Temperature 78 °F 77 °F  
Max Temperature 86 °F 87 °F 93 °F (2007)
Min Temperature 69 °F 67 °F 59 °F (2012)
Cooling Degree Days 13 12  
Month to date cooling degree days 205 179  
Year to date cooling degree days 368 379  
Since 1 June cooling degree days 205 179  
Growing Degree Days 27 (Base 50)    
Moisture  
Dew Point 69 °F    
Average Humidity 77    
Maximum Humidity 93    
Minimum Humidity 61    
Precipitation  
Precipitation 1.41 in 0.13 in 2.77 in (1963)
Month to date precipitation 5.05 2.02  
Year to date precipitation 15.30 23.51  
Sea Level Pressure  
Sea Level Pressure 30.02 in    
Wind  
Wind Speed 4 mph (SW)    
Max Wind Speed 15 mph    
Max Gust Speed 20 mph    
Visibility 7 miles    
Events Fog , Rain    
T = Trace of Precipitation, MM = Missing Value Source: NWS Daily Summary

Daily Weather History Graph

Daily Weather History Graph

Search for Another Location

Airport:

Trip Planner

Search our weather history database for the weather conditions in past years. The results will help you decide how hot, cold, wet, or windy it might be!

Date:

Astronomy

Jun. 17, 2013 Rise Set
Actual Time 6:27 AM EDT 8:51 PM EDT
Civil Twilight 5:58 AM EDT 9:20 PM EDT
Nautical Twilight 5:22 AM EDT 9:55 PM EDT
Astronomical Twilight 4:43 AM EDT 10:35 PM EDT
Moon 2:42 PM EDT (6/17) 1:47 AM EDT (6/17)
Length of Visible Light 15h 22m
Length of Day
14h 23m
First Quarter, 60% of the Moon is Illuminated
Jun 17
First Quarter
Jun 23
Full
Jun 30
Last Quarter
Jul 8
New
Jul 15
First Quarter

Hourly Weather History & Observations

Time (EDT) Temp. Heat Index Dew Point Humidity Pressure Visibility Wind Dir Wind Speed Gust Speed Precip Events Conditions
12:00 AM 69.8 °F - 66.2 °F 88% 30.12 in 0.5 mi NNW 10.4 mph 31.1 mph 0.36 in Fog , Rain Heavy Rain
12:06 AM 68.0 °F - 66.2 °F 94% 30.11 in 0.8 mi North 8.1 mph 18.4 mph 0.49 in Rain Heavy Rain
12:15 AM 68.0 °F - 66.2 °F 94% 30.11 in 1.2 mi NNW 4.6 mph - 0.63 in Rain Heavy Rain
12:24 AM 68.0 °F - 66.2 °F 94% 30.10 in 2.0 mi NE 4.6 mph - 0.69 in Rain Heavy Rain
12:36 AM 69.8 °F - 66.2 °F 88% 30.10 in 4.0 mi East 4.6 mph - 0.73 in Rain Rain
12:53 AM 69.1 °F - 66.9 °F 93% 30.08 in 5.0 mi East 4.6 mph - 0.79 in Rain Rain
1:53 AM 69.1 °F - 66.9 °F 93% 30.06 in 10.0 mi East 3.5 mph - 0.00 in   Overcast
2:53 AM 69.1 °F - 66.9 °F 93% 30.05 in 5.0 mi Calm Calm - 0.10 in Rain Rain
3:53 AM 69.1 °F - 68.0 °F 96% 30.04 in 10.0 mi SSW 3.5 mph - 0.00 in   Partly Cloudy
4:14 AM 69.8 °F - 68.0 °F 94% 30.06 in 10.0 mi Calm Calm - 0.01 in   Mostly Cloudy
4:21 AM 69.8 °F - 68.0 °F 94% 30.06 in 10.0 mi SSW 3.5 mph - 0.01 in   Overcast
4:53 AM 70.0 °F - 68.0 °F 93% 30.04 in 10.0 mi South 4.6 mph - 0.01 in Rain Light Rain
5:14 AM 69.8 °F - 68.0 °F 94% 30.06 in 10.0 mi SSW 4.6 mph - 0.00 in Rain Light Rain
5:24 AM 69.8 °F - 68.0 °F 94% 30.06 in 10.0 mi SW 4.6 mph - 0.00 in Rain Light Rain
5:53 AM 69.1 °F - 66.9 °F 93% 30.04 in 7.0 mi South 4.6 mph - 0.04 in Rain Light Rain
6:53 AM 69.1 °F - 66.9 °F 93% 30.03 in 10.0 mi Calm Calm - 0.03 in Rain Light Rain
7:53 AM 70.0 °F - 68.0 °F 93% 30.02 in 10.0 mi Calm Calm - 0.00 in   Scattered Clouds
8:28 AM 71.6 °F - 68.0 °F 88% 30.05 in 10.0 mi Calm Calm - N/A   Mostly Cloudy
8:53 AM 71.1 °F - 69.1 °F 93% 30.04 in 10.0 mi SSW 4.6 mph - N/A   Mostly Cloudy
8:59 AM 71.6 °F - 68.0 °F 88% 30.06 in 10.0 mi SSW 4.6 mph - N/A   Mostly Cloudy
9:32 AM 71.6 °F - 68.0 °F 88% 30.06 in 10.0 mi Calm Calm - N/A   Scattered Clouds
9:53 AM 73.0 °F - 68.0 °F 84% 30.03 in 10.0 mi WSW 4.6 mph - N/A   Clear
10:53 AM 75.9 °F - 69.1 °F 79% 30.02 in 10.0 mi Calm Calm - N/A   Clear
11:51 AM 80.6 °F 84.6 °F 71.6 °F 74% 30.05 in 10.0 mi Calm Calm - N/A   Mostly Cloudy
11:53 AM 81.0 °F 85.2 °F 72.0 °F 74% 30.02 in 10.0 mi Variable 3.5 mph - N/A   Mostly Cloudy
12:39 PM 82.4 °F 87.2 °F 71.6 °F 70% 30.05 in 10.0 mi SW 5.8 mph - N/A   Mostly Cloudy
12:53 PM 82.0 °F 86.7 °F 72.0 °F 71% 30.02 in 10.0 mi Variable 4.6 mph - N/A   Mostly Cloudy
1:53 PM 84.9 °F 90.7 °F 72.0 °F 65% 29.99 in 6.0 mi WSW 8.1 mph - N/A   Haze
2:53 PM 86.0 °F 91.5 °F 71.1 °F 61% 29.96 in 6.0 mi WNW 3.5 mph - 0.00 in   Haze
3:53 PM 80.1 °F 83.8 °F 72.0 °F 76% 29.96 in 7.0 mi NNW 6.9 mph - N/A   Partly Cloudy
4:50 PM 78.8 °F - 75.2 °F 89% 29.98 in 1.5 mi NW 9.2 mph - 0.05 in Rain Rain
4:53 PM 77.0 °F - 73.9 °F 90% 29.96 in 1.0 mi NW 8.1 mph - 0.08 in Rain Heavy Rain
5:02 PM 75.2 °F - 73.4 °F 94% 29.98 in 2.0 mi WNW 9.2 mph - 0.09 in Rain Heavy Rain
5:24 PM 75.2 °F - 73.4 °F 94% 29.96 in 6.0 mi NW 5.8 mph - 0.20 in Rain Light Rain
5:53 PM 77.0 °F - 73.9 °F 90% 29.98 in 6.0 mi East 5.8 mph - 0.20 in   Scattered Clouds
6:02 PM 77.0 °F - 73.4 °F 89% 29.99 in 6.0 mi ESE 5.8 mph - N/A   Mostly Cloudy
6:04 PM 77.0 °F - 73.4 °F 89% 29.99 in 6.0 mi ESE 4.6 mph - N/A   Mostly Cloudy
6:14 PM 77.0 °F - 71.6 °F 83% 30.00 in 8.0 mi Calm Calm - N/A   Overcast
6:39 PM 75.2 °F - 71.6 °F 89% 30.01 in 7.0 mi SSW 12.7 mph 19.6 mph N/A   Overcast
6:53 PM 73.9 °F - 70.0 °F 87% 30.00 in 0.8 mi SW 9.2 mph - 0.16 in Rain Heavy Rain
6:55 PM 73.4 °F - 69.8 °F 88% 30.02 in 0.5 mi SW 13.8 mph 17.3 mph 0.06 in Fog , Rain Heavy Rain
7:05 PM 69.8 °F - 68.0 °F 94% 30.04 in 0.2 mi SW 11.5 mph 19.6 mph 0.41 in Fog , Rain Heavy Rain
7:18 PM 69.8 °F - 68.0 °F 94% 30.02 in 7.0 mi SSW 8.1 mph - 0.71 in Rain Light Rain
7:34 PM 71.6 °F - 68.0 °F 88% 30.01 in 7.0 mi Calm Calm - 0.71 in   Mostly Cloudy
7:53 PM 71.1 °F - 68.0 °F 90% 29.99 in 10.0 mi Calm Calm - 0.71 in   Mostly Cloudy
8:53 PM 71.1 °F - 69.1 °F 93% 30.00 in 10.0 mi SSW 5.8 mph - N/A   Scattered Clouds
9:36 PM 71.6 °F - 69.8 °F 94% 29.98 in 6.0 mi Calm Calm - 0.07 in Rain Light Rain
9:53 PM 71.1 °F - 69.1 °F 93% 29.94 in 10.0 mi NE 4.6 mph - 0.07 in Rain Light Rain
10:53 PM 71.1 °F - 70.0 °F 96% 29.96 in 7.0 mi WSW 3.5 mph - 0.01 in   Scattered Clouds
11:02 PM 71.6 °F - 69.8 °F 94% 29.98 in 7.0 mi SW 3.5 mph - N/A   Mostly Cloudy
11:53 PM 71.1 °F - 70.0 °F 96% 29.97 in 5.0 mi SW 5.8 mph - N/A   Overcast